It's Wednesday,
August 31st, 2016
User not logged in
[Run Race Header Image][Run Race logo]
  
Race webcasting is attempted by race directors and their support staff. Please remember that conditions under which they're working may make it difficult to post timely webcast updates... your interest and patience is appreciated!
Race Information
Race Name:Oil Creek 100 Trail Runs
Location:Titusville in northwestern PA - Oil Creek State Park - birthplace of the oil industry in 1859
State:Pennsylvania, United States
 button: button: Webcast Autoplay
Event Information
Name of Event:100 miles: three 50K loops + 7.75 mile loop
Distance:100.00
Measurement:Miles
Date:Saturday October 10th, 2009
button: Assign Numbers  
Checkpoint:2: Egbert Farm
Distance:13.85 Miles
Pos Race
Number
NameAgeSexTimePace 
188Jimmy Dean Freeman32M7:12.031.2
21Richard Cook46M7:15.031.4
311Matt Clay31M7:16.031.5
474Joe Kulak41M7:21.031.8
524Daniel Young49M7:22.031.9
527Paul Trebilcock43M7:22.031.9
722Michael Carroll43M7:26.032.2
781Scott Mason47M7:26.032.2
943Zach Mitchell31M7:27.032.3
1047Brian Buddemeyer32M7:39.033.1
1077Gregg Geerdes40M7:39.033.1
1267Nathan Echols42M7:40.033.2
1328Larry Creveling57M7:44.033.5
1340Charlotte Vasarhelyi33F7:44.033.5
1366Courtenay Guertin34M7:44.033.5
1650Dave Strauss41M7:45.033.6
1721Kent Gallup38M7:46.033.6
1833Matthew Bedford48M7:48.033.8
195Donald Baker25M7:49.033.9
2014Jon Teisher34M7:50.033.9
2155Ken Niemimaa38M7:51.034.0
2164Brian Ottinger53M7:51.034.0
2176Andrew Colburn23M7:51.034.0
2432Tom Nesterick44M7:52.034.1
2516James Maxson38M7:53.034.2
2538Mike Smith51M7:53.034.2
2549Jeff Gleason51M7:53.034.2
2839Bob Combs42M7:54.034.2
2859Andrew MacGinnitie43M7:54.034.2
2861Jim Harris45M7:54.034.2
3119Steve Hanes53M8:01.034.7
3145Max Huffman36M8:01.034.7
3151Laurel Valley47F8:01.034.7
3183Leo OConnor41M8:01.034.7
3553Michael Anderson49M8:03.034.9
369Mark Davis40M8:04.034.9
3669Susan Muhaw52F8:04.034.9
3671Jerome Wojnicki40M8:04.034.9
3680Rich Vrboncic52M8:04.034.9
4057Andrew Anderson28M8:05.035.0
4084Rainer Satzinger48M8:05.035.0
423Kevin Beggs39M8:06.035.1
4218Donald Baker, Sr48M8:06.035.1
4237Kimberly Rose42F8:06.035.1
4544David Castellani44M8:08.035.2
4665Jason DeChicchis34M8:13.035.6
4678David Micklo40M8:13.035.6
4813James Marcella53M8:15.035.7
4931Scott Jacaway51M8:17.035.9
4935Caryn Jacaway47F8:17.035.9
5141Eric Grol32M8:18.036.0
5223Dale Miller41M8:19.036.0
537Philip Westlake38M8:21.036.2
5342Daniel Solinski42M8:21.036.2
5362Dan Kuzma27M8:21.036.2
5373James Miner61M8:21.036.2
5717Dan Kress51M8:23.036.3
5815Ernest Lewis44M8:24.036.4
5846Jennifer Broton36F8:24.036.4
6060Robert Haywood33M8:38.037.4
6072Martin Harris24M8:38.037.4
6256Frederick Davis III61M8:45.037.9
6370Kathleen Wheeler48F8:50.038.3
6379June Leland56F8:50.038.3
652Bill Ventura38M9:00.039.0
6636Kim Simon53F9:09.039.6
6763Peter Kozlowski29M9:13.039.9
6882Rochelle Frazeur38F9:17.040.2
698Mick Quen32M9:22.040.6
6954Tom Sperduto37M9:22.040.6
7112Harald Vaessin54M9:38.041.7
7248David Heitkamp59M10:04.043.6
736Kim Love-Ottobre43F10:19.044.7

Event Information
Name of Event:50 miles: 35.5 mile loop + 14.5 mile loop
Distance:50.00
Measurement:Miles
Date:Saturday October 10th, 2009
button: Assign Numbers 

Event Information
Name of Event:50K: 1 loop to Petroleum Center and back
Distance:50.00
Measurement:Kilometers
Date:Saturday October 10th, 2009
button: Assign Numbers 
2004-2016 : All rights reserved
Terms and Conditions